Other Surface Observations
Issued by NWS Charleston, SC

Home | Current Version | Previous Version | Text Only | Print | Product List | Glossary On
Versions: 1 2 3 4 5 6 7 8 9 10 11 12 13 14 15 16 17 18 19 20 21 22 23 24 25 26 27 28 29 30 31 32 33 34 35 36 37 38 39 40 41 42 43 44 45 46 47 48 49 50
000
SXUS52 KCHS 241526
OSOCHS

Marine Observations
National Weather Service Charleston SC
1100 AM EDT FRI MAY 24 2019

...Downtown Charleston and Harbor...

CITY           SKY/WX    TMP DP  RH WIND       PRES   REMARKS
Waterfront Prk   N/A     81  70  69 W5        30.02R

...Lake Moultrie...

CITY           SKY/WX    TMP DP  RH WIND       PRES   REMARKS
Pinopolis        N/A     79  72  78 W8        30.10F

...Lake and Supplemental Coastal Observations...

STATION/POSITION TIME  TEMP    WIND        PRES    WAVE   SWELL
                       AIR SEA DIR/SP/G            HT/PER HT/PER/DIR
                 (UTC) (F)     (DEG/KT/KT) (MB)    (FT/S) (FT/S/D)
Fort Pulaski     1500   80 79  300/  4/  5 1022.4
Sapelo Island    1500   82     300/  5     1022.0
Winyah Bay       1445   81     270/  9     1020.0S
Lake Murray      1520   82     260/  6/  9 1020.3
ACE Basin NERRS  1430   82     270/  2     1022.0S


...C-MAN and Buoy Observations...

STATION/POSITION TIME  TEMP    WIND        PRES    WAVE   SWELL
                       AIR SEA DIR/SP/G            HT/PER HT/PER/DIR
                 (UTC) (F)     (DEG/KT/KT) (MB)    (FT/S) (FT/S/D)
Buoy 41004       1510      77  280/ 10/ 12 1021.9
Buoy 41008       1450   76 78  300/  8/  8 1022.1R   2/ 6   2/ 80/ 6
Folly Beach CMAN 1500   83     250/  6/  9 1021.9F
Pritchards Islan NOT AVBL
Capers NS Buoy   1508   78 77  260/ 10/ 14 1021.3F
Fripp NS Buoy    NOT AVBL
5E St. Marys GA  1500      80                N/A     3/ 7


STATION/POSITION TIME  TEMP    WIND        PRES    WAVE   SWELL
                       AIR SEA DIR/SP/G            HT/PER HT/PER/DIR
                 (UTC) (F)     (DEG/KT/KT) (MB)    (FT/S) (FT/S/D)
Frying Pan Buoy  1510   76     250/ 16/ 19 1020.4
Buoy 41025       NOT AVBL
Cape Lookout NC  1500   77     250/ 16/ 21 1018.0F
Buoy 41002       NOT AVBL
Buoy 41010       1510   76 79   40/  8/ 12   N/A
St Augustine FL  1500   77 80   60/  6/  7 1022.5R

$$



USA.gov is the U.S. government's official web portal to all federal, state and local government web resources and services.